Wind_Speed
19 17 15 14 14 15 15 14 14 15 16 17 17 17 17 17 18 18 18 18 17 17 17 18 19 19 19 20 21 22 22 23 22 21 21 21 21 22 22 22 22 23 24 24 24 23 24 25 25 25 23 24 24 24 24 24 23 23 23 23 23 21 21 20 16 17 21 20 21 22 20 22 25 24 25 28 30 33 34 33 30 28 28 27 26
17 15 14 15 16 16 16 15 14 15 16 17 17 17 18 18 18 17 17 18 18 18 19 19 20 20 20 20 21 21 22 22 21 20 21 22 23 24 23 23 24 24 25 25 26 25 25 25 25 25 24 24 25 24 24 24 23 24 24 22 24 23 21 21 20 18 20 19 19 21 20 20 24 24 23 25 26 27 30 33 33 31 29 28 27
15 14 15 16 17 16 16 15 15 15 16 17 18 19 19 19 18 17 18 18 19 19 20 20 20 20 21 21 22 22 21 20 19 20 21 23 24 25 25 25 25 26 27 28 28 27 26 26 25 24 23 24 25 24 24 23 22 23 24 23 24 25 22 21 21 21 22 20 17 18 18 17 20 21 20 22 23 22 25 28 30 31 31 30 29
13 14 15 16 16 16 16 16 15 16 17 18 19 19 19 18 17 18 19 19 20 20 20 20 20 21 22 22 23 22 21 20 21 22 23 24 24 25 25 26 27 28 29 29 28 26 25 25 25 24 24 24 25 25 24 24 24 24 25 24 22 23 21 19 20 22 23 22 19 17 17 16 18 19 19 21 22 23 24 26 27 28 29 28 29
13 14 14 16 16 17 17 16 16 17 18 18 19 19 19 18 18 19 19 20 20 20 20 20 20 21 22 23 23 22 21 22 23 25 26 26 26 27 27 28 29 30 30 29 28 26 25 26 26 26 25 25 26 26 25 25 25 25 26 25 23 22 21 20 21 22 23 24 22 20 19 19 19 20 20 22 24 24 23 23 24 24 23 23 23
13 14 15 16 17 17 18 18 18 18 19 19 19 19 20 20 20 20 20 20 19 20 20 21 22 23 23 23 22 22 22 24 25 27 28 28 28 28 29 29 30 30 29 29 28 28 27 27 27 27 26 27 27 27 27 27 27 27 27 28 26 25 25 25 24 25 26 27 26 24 22 20 20 20 19 19 20 22 22 21 21 21 22 23 24
14 15 16 16 17 18 19 19 19 19 19 19 19 20 21 21 21 20 20 20 20 20 21 22 23 24 23 23 22 23 24 25 27 28 29 29 29 30 31 31 31 30 30 30 29 29 28 28 28 28 28 29 29 29 29 29 29 29 29 29 28 27 27 27 25 24 25 26 24 23 21 19 19 20 19 18 20 21 21 20 20 21 23 24 25
15 15 16 17 18 19 19 19 19 19 20 20 21 21 21 21 21 21 21 21 22 22 23 24 25 24 24 24 24 25 26 27 29 29 29 30 30 31 31 31 31 31 30 30 30 29 29 29 29 29 29 30 30 30 30 30 30 31 31 30 29 28 28 27 24 23 24 24 24 22 21 19 19 20 20 18 18 20 21 20 20 22 22 22 23
15 16 17 18 18 18 19 19 19 19 20 21 21 22 21 21 21 22 22 23 24 24 24 25 25 25 26 26 26 27 28 29 30 30 30 30 30 31 31 30 30 30 31 31 31 30 29 29 29 30 30 31 30 30 30 30 30 31 32 31 30 30 29 27 25 24 23 23 23 23 21 20 19 18 16 16 18 21 23 21 21 23 23 24 26
16 17 18 19 19 18 18 18 19 19 20 21 21 21 21 22 22 23 24 24 25 25 25 25 25 26 27 27 28 28 29 31 31 29 27 28 30 31 31 29 28 29 29 29 29 27 26 27 28 29 29 29 28 29 29 29 29 30 31 30 30 30 29 28 28 27 25 23 23 24 20 19 23 23 22 23 24 24 24 23 23 25 23 22 24
17 18 19 19 19 19 19 19 19 20 20 21 21 21 22 23 23 24 24 25 25 25 25 26 26 27 27 28 29 29 31 32 30 27 26 28 30 31 31 29 28 27 26 26 26 26 25 26 27 27 27 28 29 30 30 30 30 31 32 32 32 32 30 29 29 28 27 25 26 27 22 21 27 29 27 28 26 25 26 25 24 24 20 15 16
18 19 19 19 19 19 20 20 20 21 21 21 21 22 23 23 24 24 24 25 25 25 26 27 27 28 28 29 29 30 31 31 29 26 28 30 30 30 31 30 27 26 25 24 25 25 24 25 25 27 29 29 29 29 29 29 30 30 32 33 33 33 33 33 32 29 27 26 26 27 26 26 31 33 32 30 28 27 28 27 25 24 23 19 16
18 19 19 19 20 21 21 21 22 22 21 21 22 22 23 24 24 24 25 25 25 26 27 28 28 29 29 29 30 30 31 32 29 27 29 31 30 30 32 30 27 25 23 23 23 24 24 25 27 28 29 29 28 28 29 29 30 30 31 32 33 34 34 35 36 34 32 30 27 26 28 28 29 31 31 29 28 28 28 27 27 27 26 25 24
17 19 19 20 21 21 22 22 23 23 22 22 22 23 23 24 25 25 26 26 27 27 28 28 29 29 29 30 30 31 33 33 30 28 29 31 30 30 31 29 26 25 24 24 25 25 25 26 27 28 29 29 29 29 29 30 30 31 33 33 35 36 35 35 37 37 37 36 34 34 35 34 32 33 31 28 27 27 26 25 27 29 30 31 32
18 19 19 20 21 21 23 23 23 23 23 23 23 23 24 25 25 26 27 27 27 28 28 28 29 29 30 30 31 32 33 33 30 28 29 31 31 30 29 28 27 27 27 26 26 26 26 26 27 28 28 29 29 29 28 29 30 31 33 33 34 35 36 36 37 37 38 38 38 39 41 40 40 40 39 36 35 35 35 34 33 33 32 31 30
18 19 20 21 22 23 23 24 24 23 23 23 23 24 25 25 26 26 26 27 27 28 28 29 29 30 30 30 30 32 34 33 30 28 29 30 31 29 28 28 27 27 27 27 27 27 27 26 27 28 28 29 29 28 28 29 30 30 31 32 33 33 33 35 36 36 37 37 38 40 42 43 44 43 43 41 40 41 42 39 37 34 29 24 23
20 20 21 22 23 23 23 23 24 24 24 24 25 25 25 26 26 26 26 26 27 27 28 29 29 29 29 30 30 31 34 34 30 28 28 29 30 30 29 27 26 26 26 26 27 27 27 27 27 28 28 29 28 28 29 29 29 29 30 30 31 31 31 33 34 35 36 36 36 37 38 40 40 41 42 41 39 40 37 32 31 31 24 16 14
21 21 22 23 23 23 22 23 23 24 24 25 25 26 26 26 26 26 25 26 27 28 28 28 29 29 29 30 30 31 33 33 30 27 27 28 29 30 28 26 26 26 26 26 27 28 27 26 26 27 27 28 28 28 28 28 28 29 28 28 29 30 31 31 31 32 33 35 36 35 34 34 33 32 33 31 29 28 27 24 25 25 20 14 13
22 22 23 23 23 22 22 22 23 24 25 26 26 27 27 27 27 26 26 27 28 28 28 27 28 29 29 30 31 31 32 32 30 28 27 27 28 29 28 26 26 26 26 27 27 27 27 27 27 26 26 26 26 26 27 29 29 30 30 29 28 28 29 29 28 27 27 28 29 29 29 30 29 28 28 27 25 24 24 23 23 21 18 17 18
22 22 22 22 22 22 22 23 24 24 25 26 26 27 27 27 27 27 27 28 28 28 27 27 28 29 29 30 31 31 31 32 31 29 27 27 28 29 28 26 25 25 26 25 25 26 27 26 23 20 20 22 24 27 30 31 32 34 32 26 22 23 24 22 20 19 19 20 21 23 26 28 29 29 28 27 27 27 27 26 25 24 23 22 21
21 21 22 22 23 23 23 23 24 25 25 26 26 27 27 28 28 28 28 27 27 27 27 27 27 29 30 30 30 31 31 31 31 29 26 26 28 28 27 26 25 26 26 25 25 25 23 19 18 19 21 24 26 30 32 34 35 33 25 18 17 20 18 14 14 17 19 21 23 26 28 30 32 32 31 29 29 29 29 28 27 27 27 26 24
21 21 23 23 23 24 24 24 25 25 25 26 26 28 28 28 28 28 27 27 27 27 28 27 27 28 29 29 30 31 30 30 30 29 26 26 26 27 27 27 27 27 26 24 22 20 17 18 22 24 24 25 28 30 32 33 31 24 16 16 19 19 15 13 16 20 22 23 24 25 27 28 30 32 31 30 30 29 29 30 30 30 30 30 29
21 22 23 24 25 25 25 25 25 25 26 26 26 28 29 28 28 28 27 26 26 26 26 26 26 27 28 28 29 30 30 30 29 28 26 25 25 26 27 26 26 27 25 21 18 17 19 23 25 25 25 26 29 30 29 27 22 17 17 20 21 20 19 19 20 20 20 22 22 23 24 25 25 27 29 30 30 30 30 31 31 32 32 31 31
21 22 24 25 26 26 26 26 26 25 26 26 26 28 29 28 28 27 26 25 24 25 25 24 23 24 25 26 28 29 30 29 28 28 27 26 26 27 28 28 28 28 26 23 21 22 24 26 26 26 27 27 27 26 24 21 19 19 21 21 21 22 24 24 22 20 20 20 20 21 23 23 23 25 26 26 26 27 27 28 28 29 30 31 31
21 23 25 26 27 27 26 26 26 26 26 26 26 27 28 27 27 27 25 23 23 23 23 23 23 23 23 24 26 29 30 30 29 28 28 28 28 29 30 30 29 27 26 26 26 26 26 27 28 28 27 26 25 24 23 22 22 23 24 23 24 25 25 23 22 21 19 19 19 20 21 21 21 22 23 23 25 26 27 28 29 31 32 32 33
22 23 25 26 27 26 26 27 27 27 26 26 26 26 26 26 27 26 24 23 22 22 22 22 21 22 22 23 25 28 29 30 30 30 29 29 30 30 30 29 27 26 26 27 27 26 26 27 28 27 26 26 25 23 22 23 24 26 27 27 27 25 23 22 22 20 19 19 19 18 19 20 21 23 25 26 28 29 29 30 31 33 34 32 30
22 24 25 26 26 26 26 27 27 27 26 26 25 25 25 25 25 26 24 22 22 21 21 21 21 21 22 24 26 28 29 29 30 30 30 29 29 29 28 28 26 26 27 28 27 27 27 27 27 27 27 26 25 23 22 22 23 24 25 25 23 22 20 19 19 19 20 21 20 21 21 22 23 25 25 25 26 27 26 25 27 29 30 28 26
22 24 25 25 26 26 25 26 26 26 26 26 25 26 25 24 25 26 26 24 23 23 23 23 23 23 24 26 26 26 26 26 27 27 27 27 28 27 27 28 28 27 28 28 27 27 27 27 27 26 25 23 22 21 21 21 21 21 21 20 19 18 17 17 18 20 20 20 21 22 22 22 23 23 22 22 24 24 22 21 22 25 26 24 22
22 24 25 25 26 26 25 25 25 25 25 26 26 26 26 25 25 28 28 26 25 26 26 26 25 26 27 28 26 24 22 22 23 23 24 25 25 25 25 25 25 24 24 23 24 25 24 23 22 20 17 16 16 17 18 18 18 17 17 16 16 16 15 16 17 18 18 18 20 21 21 22 22 21 21 22 24 24 21 20 21 22 22 22 21
22 24 24 25 25 25 24 24 24 23 24 24 26 27 28 25 23 24 27 27 25 25 26 26 27 27 26 23 21 20 20 21 21 20 22 23 22 21 19 19 20 20 20 20 21 21 18 15 14 13 12 13 14 16 16 15 15 15 15 14 14 14 15 15 16 16 17 18 19 20 21 21 20 19 20 22 24 24 21 20 21 21 20 20 21
22 24 24 24 24 23 24 24 24 23 23 23 24 26 28 29 26 23 23 24 25 25 25 25 26 26 25 23 21 20 19 20 20 20 21 22 20 17 16 18 19 18 14 11 11 11 11 10 11 11 12 12 13 13 13 13 13 14 14 14 13 13 14 14 15 16 17 18 19 20 20 19 18 19 19 20 21 22 20 19 20 20 20 21 21
22 24 25 25 24 23 23 24 24 23 23 22 22 22 24 27 30 29 24 22 22 23 24 24 24 24 23 23 23 23 21 20 19 20 21 20 18 16 18 19 17 13 10 9 10 11 10 10 12 12 12 13 12 12 12 12 13 13 13 14 14 13 13 14 15 16 17 19 19 19 17 17 17 18 18 18 19 20 20 19 19 19 20 21 22
21 23 25 25 25 24 24 24 23 23 22 22 22 22 21 21 24 29 30 28 26 24 23 22 22 22 22 23 23 24 24 22 21 20 19 18 18 19 18 14 11 9 11 13 13 13 12 11 11 11 11 11 11 11 11 12 13 12 13 14 14 14 15 15 15 16 17 18 17 17 17 17 17 17 18 18 19 19 19 19 19 20 20 20 21
20 22 23 24 25 25 24 24 24 23 23 22 22 22 22 21 21 23 26 28 28 29 29 27 23 21 21 22 22 23 24 24 23 21 20 21 22 20 14 10 10 13 14 13 12 12 12 12 12 12 11 11 11 12 12 13 13 13 13 14 15 16 15 14 15 16 17 17 16 16 17 17 17 17 18 19 18 18 19 18 19 19 19 19 20
20 22 23 23 23 24 24 24 24 24 24 23 23 22 23 23 22 22 22 22 22 25 29 31 29 26 24 22 21 22 22 23 22 22 22 23 21 17 13 12 14 15 15 13 12 12 12 13 13 13 12 12 12 12 13 13 13 13 14 15 15 15 15 15 15 16 17 16 16 16 16 17 17 18 19 20 19 18 18 18 19 19 19 19 19
19 21 22 23 23 24 24 24 24 24 24 24 24 23 23 23 22 22 22 22 22 23 25 28 30 29 26 23 21 20 21 21 22 22 23 23 20 15 13 13 14 14 14 14 14 14 13 14 14 14 13 13 13 13 13 14 14 14 14 15 15 15 15 16 16 16 15 15 16 16 16 17 17 18 19 20 18 17 17 18 19 19 19 19 19
19 21 22 23 23 23 24 24 24 24 23 23 23 23 23 22 22 22 22 22 22 23 24 25 26 25 24 23 21 21 21 21 22 22 22 21 19 16 15 14 13 13 15 15 15 15 16 15 14 14 14 13 13 14 14 14 14 15 15 14 14 14 15 15 15 15 16 16 17 16 16 17 18 19 19 18 18 17 17 18 19 19 20 20 19
20 21 22 23 23 23 24 24 24 23 22 22 22 22 22 22 22 22 22 22 22 22 23 23 23 21 22 23 22 22 22 23 22 22 21 20 19 17 16 15 13 14 15 16 16 17 17 16 15 15 14 14 14 14 14 14 15 16 15 15 14 14 14 15 15 15 16 17 16 16 16 17 18 19 19 18 18 18 17 18 18 18 19 19 17
21 22 22 22 23 23 23 23 23 23 22 22 22 21 21 21 21 21 21 21 22 22 22 22 22 21 21 22 22 21 21 21 21 21 20 18 17 16 15 15 15 15 16 17 17 17 17 16 16 15 14 14 14 13 13 15 16 15 15 15 15 15 15 15 15 16 17 17 16 15 16 17 19 20 19 18 18 18 18 18 18 18 18 18 17
22 23 23 23 23 23 23 22 23 22 22 22 22 21 21 21 21 21 21 21 21 21 21 21 22 22 22 22 21 20 20 19 18 18 18 17 17 16 16 16 17 17 17 18 18 17 17 17 16 16 15 14 14 14 14 15 15 15 15 15 15 15 15 15 15 16 17 17 16 15 16 18 19 19 18 17 17 18 18 19 19 18 18 18 18
22 23 24 24 23 23 23 22 22 22 22 22 21 21 21 22 21 21 22 21 21 21 21 22 22 23 23 21 20 20 20 19 18 18 18 18 19 19 18 18 18 18 18 19 18 17 17 16 16 16 15 14 14 14 14 15 15 15 15 15 15 15 15 15 15 16 16 16 16 16 17 18 18 18 18 18 17 18 19 19 19 19 18 18 18
22 23 24 23 23 23 23 23 23 23 22 21 21 21 22 22 22 22 21 21 21 21 21 21 22 23 23 21 20 20 20 20 20 19 19 19 19 19 19 19 19 19 19 19 18 17 16 16 16 16 15 14 14 14 14 15 15 14 15 15 16 15 15 15 15 15 15 15 16 16 17 17 17 17 17 18 18 19 19 18 19 19 18 18 18
22 22 23 23 23 22 23 23 24 23 22 22 22 22 22 22 22 21 21 21 21 21 21 21 22 22 22 21 20 19 20 20 20 20 19 19 19 19 19 19 20 20 19 18 17 16 15 15 16 16 15 15 14 14 14 14 14 14 14 15 15 15 15 15 14 14 15 16 16 17 17 17 17 17 18 18 18 18 18 18 18 18 18 18 18
20 21 22 23 23 23 23 22 22 23 23 23 23 23 22 22 22 21 21 21 21 21 21 21 22 22 22 21 20 19 19 19 19 19 19 19 19 19 19 19 19 19 19 18 16 15 14 15 15 15 15 14 14 14 14 14 13 14 14 15 15 15 15 14 14 14 15 16 16 16 17 17 17 18 18 18 17 17 18 18 18 18 18 18 17
19 20 21 22 23 22 22 22 21 22 23 23 23 23 22 21 21 21 21 20 20 20 21 21 21 21 21 20 19 19 19 19 19 19 20 20 20 20 19 19 19 19 19 18 16 14 13 14 14 15 15 14 13 13 14 13 13 14 14 14 15 16 16 15 15 14 14 15 16 17 17 18 18 18 18 18 17 17 18 18 18 18 18 18 17
18 19 20 22 22 22 22 22 22 22 22 22 22 22 21 21 20 20 20 20 20 20 21 21 21 20 20 20 19 19 19 19 19 19 20 20 20 20 20 19 18 18 18 18 16 15 13 13 14 14 14 14 13 13 13 13 14 14 14 14 15 16 15 15 14 13 13 14 15 17 17 18 18 18 18 18 18 18 18 18 18 18 18 18 18
18 19 20 21 22 22 22 22 22 22 22 21 21 21 21 21 20 20 20 21 20 20 21 21 20 20 20 20 19 19 19 19 19 19 19 20 20 20 20 18 17 17 17 17 16 15 13 13 13 13 13 13 13 13 13 14 14 14 14 14 13 14 13 13 12 12 13 14 15 16 17 17 18 19 19 19 18 18 18 18 19 19 18 19 18
19 19 20 21 21 21 22 22 22 22 22 21 21 21 21 21 20 20 20 20 20 20 20 20 20 20 20 20 20 19 19 19 19 19 19 20 20 19 19 18 17 16 16 16 15 14 13 13 13 13 13 13 13 13 13 14 14 14 13 13 13 13 12 12 11 12 13 14 15 15 16 17 18 20 19 19 18 18 18 20 20 20 19 18 18
19 19 20 20 20 21 21 22 22 22 22 22 22 22 21 21 20 20 20 20 20 19 19 20 20 20 20 20 20 19 19 19 19 19 19 19 19 19 19 18 17 16 16 16 15 13 12 12 12 12 12 12 13 13 13 14 13 13 13 13 13 13 12 12 11 12 13 13 14 14 15 17 18 19 19 19 19 19 20 20 20 19 18 18 19
20 20 20 20 21 21 22 22 22 22 22 22 22 21 21 21 20 20 20 20 20 19 19 20 20 20 20 20 20 19 19 18 18 18 18 18 18 18 18 18 17 15 15 15 14 13 12 12 11 12 12 12 13 13 14 13 13 13 14 13 13 12 11 11 11 12 12 13 14 15 16 17 17 18 19 19 19 19 19 19 19 18 17 18 19
20 20 20 21 21 21 22 22 22 22 22 21 21 21 21 20 20 20 20 20 20 20 20 20 20 20 20 20 19 19 19 19 18 18 18 18 18 17 17 16 15 14 14 14 14 14 13 12 12 12 12 12 13 13 13 13 13 13 13 12 11 10 9 10 11 13 14 15 15 15 15 15 16 18 18 18 18 18 18 17 17 17 17 18 20
Wind_Direction
241 251 263 272 278 283 284 281 277 276 277 277 279 283 288 293 296 296 292 288 287 289 289 291 293 294 297 299 302 303 302 301 301 301 299 296 295 295 295 294 291 291 291 291 291 291 291 290 289 289 290 290 289 290 290 290 289 287 286 286 284 282 281 277 276 283 285 283 281 282 286 287 284 282 284 287 284 283 285 286 289 290 288 287 285
245 258 270 276 280 281 280 279 278 277 277 278 279 283 288 294 297 293 286 283 285 288 291 292 293 294 296 298 300 300 300 298 298 298 296 294 294 294 294 292 291 290 290 290 290 291 291 289 288 289 289 288 288 289 290 289 288 286 285 284 283 282 281 278 276 281 286 287 284 283 283 282 282 283 285 286 288 289 287 285 285 287 287 286 284
252 267 276 277 277 276 275 277 279 278 278 279 282 286 291 294 293 286 282 283 286 289 291 291 291 291 293 296 299 300 299 296 295 294 293 292 292 291 290 289 288 288 288 288 289 290 290 288 288 288 288 288 287 287 288 287 285 284 283 283 282 282 280 276 274 276 283 287 285 284 286 282 279 283 285 285 287 290 289 288 287 286 284 283 281
261 273 276 275 274 272 272 276 278 278 280 281 285 288 291 291 287 283 282 284 288 291 290 287 286 288 291 295 298 298 296 294 294 294 293 291 289 288 287 287 286 286 286 287 288 289 288 287 286 287 287 285 285 285 285 284 283 282 282 281 281 281 279 274 271 273 279 284 284 283 286 286 282 283 285 286 287 287 286 287 289 289 286 284 282
267 275 277 277 275 272 274 277 278 280 281 282 285 286 287 288 286 285 285 287 288 287 285 283 284 287 291 294 295 294 293 293 293 295 295 292 290 287 286 285 285 285 286 286 287 286 285 285 284 286 285 283 283 283 282 282 282 281 279 279 277 276 276 274 273 275 278 283 286 286 285 285 283 281 281 283 285 286 286 284 287 290 292 290 285
273 281 282 280 277 275 276 278 279 281 282 282 283 285 287 289 288 287 287 286 285 282 282 283 285 289 291 292 292 291 291 291 292 294 294 293 291 289 287 286 285 285 284 285 285 285 284 285 285 284 282 280 280 281 281 281 281 279 277 277 276 274 273 272 272 274 277 280 282 283 281 279 278 278 278 279 280 282 284 285 285 284 285 286 284
280 284 284 281 277 276 277 279 281 282 281 282 284 287 290 290 287 287 286 283 282 281 283 286 289 291 291 290 290 290 291 292 292 292 292 292 291 289 288 287 286 285 285 285 285 285 285 285 285 285 282 279 279 279 280 279 277 277 276 276 275 273 271 271 271 272 274 276 277 278 278 276 275 276 276 276 276 276 278 283 285 282 282 286 288
282 284 285 281 277 276 279 282 282 282 282 284 287 290 290 287 285 285 284 282 282 284 287 290 291 291 290 289 289 290 291 292 292 292 291 291 290 288 288 288 287 287 287 287 287 287 286 285 284 284 283 281 281 280 280 278 276 275 275 274 273 271 268 267 267 268 270 272 274 274 276 275 272 271 271 270 268 268 270 274 278 280 283 287 289
284 288 287 281 277 279 282 283 282 283 285 287 289 289 287 285 285 285 284 283 284 286 289 291 291 290 290 289 290 291 292 293 293 293 292 291 290 288 287 285 284 284 285 285 286 285 283 282 281 282 282 282 282 281 279 277 273 270 271 271 269 266 265 263 261 261 263 266 268 270 272 272 269 268 265 259 258 265 272 274 273 275 280 282 281
288 290 285 280 279 282 283 282 282 285 287 288 288 288 287 287 288 288 286 285 285 286 288 289 289 289 289 289 290 292 293 295 296 292 287 286 285 284 284 282 281 282 281 280 280 280 278 278 279 280 280 279 277 276 275 272 269 268 268 268 265 262 258 255 254 255 255 256 260 263 264 263 263 262 261 261 262 267 272 273 271 273 276 278 278
290 287 281 280 282 283 283 283 285 288 289 289 288 289 290 291 291 289 287 285 285 286 287 287 288 288 288 289 290 291 293 296 296 290 285 284 283 283 283 283 283 282 280 279 279 277 276 277 278 277 276 275 275 275 274 271 269 269 270 270 268 265 260 255 253 252 250 251 256 259 259 260 263 263 262 263 264 264 266 265 266 269 269 267 272
288 283 279 280 282 283 284 285 288 290 290 288 289 292 294 293 291 288 286 285 286 286 287 287 288 289 289 289 289 291 294 296 294 289 287 288 288 288 287 288 288 286 284 282 280 279 277 277 276 276 276 277 276 276 275 272 269 269 269 269 269 268 266 263 261 257 252 251 253 254 254 257 263 263 262 262 262 261 261 260 259 261 261 258 259
285 280 279 280 281 282 284 287 290 291 290 288 290 293 294 291 289 288 287 287 286 286 287 288 289 290 289 289 290 291 293 296 294 289 289 290 291 292 293 293 293 291 287 285 282 281 279 279 278 278 279 279 277 276 274 272 271 270 269 269 268 268 269 268 268 268 266 265 264 262 260 260 262 263 263 263 262 259 257 256 255 255 255 255 254
283 280 280 279 280 283 286 289 291 291 290 289 290 292 292 290 289 288 288 287 286 286 287 288 289 289 289 289 290 291 293 295 294 290 290 291 292 294 296 296 295 292 289 288 286 283 282 281 280 279 281 282 280 278 275 273 273 272 272 271 270 271 271 271 272 273 273 272 271 270 269 267 266 266 266 264 260 257 255 253 252 250 250 254 256
285 282 280 280 282 286 289 290 291 290 290 289 289 290 290 289 288 289 289 287 286 286 287 288 288 289 289 289 289 289 291 294 293 290 291 291 292 296 299 298 297 295 294 292 290 288 286 283 281 280 280 281 281 279 275 273 272 271 271 271 271 272 272 273 273 273 272 270 268 267 268 268 267 266 266 262 258 257 256 255 254 253 255 259 262
286 284 282 284 287 291 292 290 289 289 289 288 288 289 290 289 289 290 289 287 286 287 287 287 288 288 288 288 286 286 290 293 292 291 292 292 294 297 299 298 298 296 294 294 292 290 288 285 282 281 279 279 282 280 276 273 270 268 267 268 269 270 270 273 275 273 271 270 268 267 267 268 268 267 265 262 258 256 256 254 255 256 257 260 261
286 285 285 288 292 294 293 290 289 290 289 287 288 289 290 290 291 291 290 288 287 286 286 287 287 286 286 285 284 284 288 292 292 291 292 293 295 297 297 297 296 294 292 292 291 291 291 288 284 281 279 280 282 281 277 275 272 270 270 271 272 273 273 276 279 279 279 277 274 271 271 271 270 270 268 264 259 255 251 248 249 249 246 247 250
286 287 288 293 296 295 293 290 290 290 289 288 288 290 290 291 292 292 290 287 286 286 286 286 285 284 283 283 283 284 287 290 291 290 291 293 293 295 296 295 293 293 291 290 290 290 291 289 285 279 276 276 277 276 276 277 278 278 279 280 280 279 280 280 281 282 284 285 284 284 284 284 284 284 282 278 273 267 257 252 254 249 240 235 241
288 290 292 295 296 295 293 292 291 290 289 289 289 290 291 292 292 292 290 288 287 287 286 284 282 282 282 282 283 284 285 288 292 291 291 292 291 291 294 293 291 290 289 287 287 288 288 288 285 279 274 274 276 278 280 283 285 286 284 282 280 279 282 284 283 282 284 287 289 291 291 290 290 290 290 288 287 283 277 273 272 266 256 250 250
293 293 294 295 295 295 294 293 292 290 290 290 291 291 292 293 293 292 290 289 287 286 284 282 281 281 282 282 284 284 284 288 293 293 290 290 289 289 292 292 288 285 284 283 283 282 281 280 277 273 275 280 282 283 285 286 285 284 283 282 280 282 288 292 293 296 299 299 298 296 293 291 290 291 292 290 288 285 282 278 273 267 263 259 258
295 294 294 296 296 295 295 293 292 291 291 291 291 291 292 293 292 291 290 288 287 285 284 282 280 281 282 282 283 285 287 288 292 293 291 289 289 291 291 290 286 282 281 280 277 274 273 274 273 276 282 284 283 283 283 282 283 286 289 287 285 292 305 315 315 314 311 306 301 298 294 293 292 292 292 290 287 285 282 279 274 267 261 257 256
295 294 295 295 295 294 294 293 292 292 291 291 291 291 292 293 291 290 289 287 286 284 283 283 281 280 282 283 284 287 289 290 291 292 292 290 289 290 290 288 286 283 280 277 274 273 277 283 284 286 286 284 280 280 280 282 287 293 296 294 299 313 330 331 319 313 308 303 299 295 292 291 290 289 289 287 285 283 280 278 276 272 266 260 257
295 294 294 294 294 294 294 293 293 292 292 292 291 291 292 292 291 290 288 286 285 284 283 282 280 279 280 282 284 287 290 291 291 292 293 291 288 291 294 292 290 290 289 287 284 285 289 290 289 290 288 283 280 281 284 289 298 304 304 309 319 328 328 319 314 310 304 298 294 288 285 284 282 282 283 283 284 284 283 282 279 277 274 270 264
295 293 293 293 294 295 295 294 294 292 292 292 291 290 292 292 290 289 287 285 282 280 281 281 278 277 278 280 283 287 290 291 292 293 294 292 288 290 295 296 295 296 297 295 293 292 292 291 290 289 288 287 288 293 298 304 309 309 312 319 324 320 316 315 315 310 301 294 287 281 280 281 279 278 279 281 283 285 283 281 279 276 275 275 273
292 292 293 293 294 296 295 294 293 292 292 292 290 290 291 290 289 288 287 284 280 277 278 279 276 274 275 275 279 284 288 290 292 293 294 293 291 291 295 296 295 296 296 295 294 294 292 290 291 292 294 298 303 307 309 310 310 309 311 315 315 313 314 315 312 307 299 291 285 282 281 283 281 279 281 284 285 284 280 279 278 276 275 277 276
290 291 292 293 294 295 294 293 293 294 294 293 291 290 290 288 287 286 285 282 278 276 276 276 275 274 274 274 276 280 284 286 287 289 291 291 291 292 294 294 294 294 293 292 293 292 290 290 292 294 297 301 303 303 301 299 299 301 303 306 308 310 311 311 308 303 296 291 290 287 285 287 288 287 289 290 288 284 283 282 281 280 278 277 274
289 290 291 293 294 293 292 293 294 295 295 294 293 291 289 287 284 283 282 280 278 277 276 276 274 272 272 274 275 276 278 279 279 283 286 287 287 289 290 290 291 293 292 291 290 290 287 286 286 286 286 286 286 285 284 286 291 296 299 302 304 305 306 305 301 297 294 292 291 290 290 293 294 293 294 292 289 286 285 283 279 277 276 272 267
288 289 291 293 293 292 292 292 293 294 295 294 293 290 289 287 283 281 280 278 277 277 275 273 273 272 272 273 274 273 272 272 275 280 283 283 283 283 283 284 284 284 285 285 284 282 279 277 277 275 273 272 273 274 277 285 293 297 298 299 301 302 302 300 296 294 295 294 293 295 297 298 296 296 295 293 291 290 288 282 275 273 272 269 263
289 289 291 292 292 293 294 293 293 293 294 294 293 291 289 287 284 284 285 284 280 277 274 272 273 273 271 269 269 269 268 271 277 284 286 284 280 278 278 280 279 278 278 279 278 275 271 268 266 264 262 266 274 281 287 293 297 297 298 299 301 301 301 299 297 297 298 298 297 298 299 297 295 295 297 297 295 293 290 284 278 277 276 274 269
289 289 290 291 292 294 294 294 294 293 292 293 294 294 293 289 282 281 285 288 285 279 276 277 278 280 280 279 279 277 277 281 289 291 289 286 286 286 286 286 284 285 288 286 279 276 274 270 265 265 271 278 284 289 293 296 298 299 301 302 301 301 299 296 297 299 299 299 299 298 297 295 294 298 301 300 297 295 292 286 283 281 278 274 269
287 288 290 290 292 294 294 294 294 293 291 291 290 292 295 295 291 284 281 283 286 284 283 284 286 288 293 298 300 297 293 294 297 295 292 295 300 302 300 295 292 297 305 305 292 285 286 285 281 283 286 286 285 287 291 295 298 301 304 304 303 301 297 294 297 300 300 300 299 296 293 294 298 303 303 299 296 296 296 292 287 282 276 271 266
285 286 290 292 293 294 293 293 293 292 291 291 289 287 290 294 298 298 294 289 287 288 289 292 294 296 299 302 305 305 303 301 299 299 302 306 307 306 303 296 294 303 318 318 310 308 305 297 292 291 289 285 283 286 290 295 299 301 304 305 303 300 296 295 299 301 300 300 297 294 295 301 304 304 301 299 300 299 297 296 292 285 280 274 267
285 286 290 293 294 295 294 293 293 290 289 289 289 287 285 285 291 298 302 302 300 296 294 294 296 300 303 304 306 307 306 305 306 308 311 309 304 305 305 295 289 309 322 315 309 308 307 301 295 292 287 283 284 288 293 297 300 302 303 302 300 300 299 299 301 301 299 297 294 294 300 305 304 301 302 302 301 298 297 297 293 287 283 279 273
288 288 290 292 293 294 294 294 293 291 290 289 287 286 285 282 282 288 296 302 305 305 305 304 302 301 302 303 304 305 305 307 311 312 310 306 306 310 310 293 284 299 310 314 313 310 307 304 302 298 292 287 288 292 295 298 301 302 303 302 302 303 303 302 302 303 299 296 295 299 304 304 301 302 305 304 302 299 297 295 293 289 286 286 285
291 291 293 293 293 293 294 294 293 291 290 289 287 285 284 284 283 282 283 288 294 298 300 302 303 305 304 301 300 301 302 304 306 306 303 304 310 316 315 306 304 305 306 312 316 313 307 303 300 300 297 292 292 294 296 298 300 302 303 305 305 304 303 303 305 304 299 297 300 303 303 302 302 304 305 303 301 300 297 294 293 291 289 289 294
293 294 296 296 295 295 295 294 292 291 290 289 288 287 285 283 282 281 281 283 284 285 288 293 298 301 302 299 297 298 298 299 301 301 301 304 312 319 318 314 313 310 306 308 311 309 304 298 296 298 297 294 294 296 296 296 299 300 302 303 303 302 302 303 304 304 302 303 305 305 303 303 305 307 307 303 299 296 295 295 295 293 293 295 298
296 296 297 299 300 299 297 295 293 292 290 289 287 286 285 283 282 282 282 283 283 283 285 289 293 296 297 298 298 298 298 298 298 299 300 305 311 314 311 306 300 296 296 299 302 302 300 297 295 296 297 294 295 297 295 295 299 301 300 300 301 302 302 301 301 303 305 306 305 304 303 306 309 309 307 303 299 297 298 299 297 297 299 301 299
298 298 299 301 302 300 297 296 295 293 290 288 286 285 284 283 283 283 283 282 282 283 285 287 289 290 291 294 299 301 300 298 297 296 297 301 303 303 300 296 290 286 287 291 294 296 295 295 295 296 295 295 295 294 293 296 299 299 298 298 301 302 300 298 299 303 305 305 304 304 306 309 312 312 308 302 299 299 299 301 301 301 303 303 301
302 302 303 303 302 299 296 294 294 293 291 289 288 286 285 284 284 284 283 283 283 283 284 285 286 286 288 293 298 300 296 292 289 290 293 295 296 294 292 288 285 283 282 285 290 291 290 292 295 295 294 295 293 290 292 297 298 297 297 298 300 301 300 299 300 302 303 304 304 306 309 311 313 314 310 303 300 300 301 302 303 302 302 302 302
306 305 305 304 302 299 297 294 292 291 291 290 290 289 286 285 285 285 284 284 283 283 284 284 283 286 290 294 297 297 291 284 283 286 290 292 293 291 288 285 284 284 284 285 288 289 289 291 293 293 293 293 290 288 292 297 297 296 295 296 297 298 298 298 299 300 303 305 305 307 311 315 316 315 310 305 303 303 303 304 304 303 302 302 301
308 305 304 305 304 302 299 295 292 291 291 291 291 290 288 287 287 286 284 283 282 282 283 282 283 288 292 293 294 295 292 289 288 289 288 288 289 289 287 285 284 284 285 287 289 289 289 290 292 292 292 291 288 287 291 296 297 294 292 293 295 296 296 296 297 299 302 304 306 310 315 317 316 314 311 308 307 307 305 304 305 305 304 304 303
308 305 305 306 305 302 299 296 295 295 294 293 292 291 290 289 288 286 284 283 282 283 283 284 286 290 292 292 293 293 291 289 288 286 284 282 283 283 283 284 285 285 287 290 292 291 289 289 291 291 290 288 287 286 289 294 297 294 291 291 292 293 293 294 296 298 301 304 308 314 317 316 314 313 311 309 309 308 306 305 306 306 306 306 305
308 306 305 305 304 301 298 297 297 297 296 296 296 295 293 291 288 286 285 284 284 284 284 286 288 291 292 292 292 290 288 286 284 283 281 279 279 280 281 283 286 288 290 291 292 292 290 289 290 290 287 286 286 285 287 293 296 294 291 290 289 289 290 291 292 295 300 305 310 313 315 315 315 314 312 311 310 308 306 306 307 307 306 305 305
309 307 306 304 304 302 299 298 298 297 298 299 298 296 294 292 289 288 286 285 285 285 285 286 289 291 292 293 291 288 285 284 283 282 281 279 279 279 281 284 287 289 290 291 292 291 290 290 291 290 288 286 285 284 287 292 294 292 290 289 287 285 284 285 289 296 302 306 309 311 313 315 315 314 313 312 310 309 308 307 307 308 307 306 305
310 309 307 305 304 303 301 301 300 299 299 300 298 296 296 293 290 290 289 287 288 288 288 288 290 291 291 291 290 287 284 283 282 281 281 281 280 280 281 284 288 290 290 291 290 288 288 290 292 291 289 286 285 284 287 291 293 293 291 288 284 281 280 282 287 294 299 302 305 308 311 313 313 312 312 311 309 308 306 304 305 306 305 304 303
313 311 308 306 304 303 303 303 303 301 300 298 296 296 296 295 293 292 292 291 291 291 291 291 291 291 290 290 289 287 285 284 281 280 280 280 281 280 281 284 288 291 292 292 289 286 286 291 293 291 289 286 285 285 289 293 295 294 292 289 284 279 277 279 283 289 295 298 301 305 309 309 309 309 310 309 308 307 304 302 303 303 302 301 302
314 311 308 306 305 303 303 304 303 302 300 298 296 295 295 296 296 295 294 293 293 292 291 292 292 291 291 290 289 288 286 284 282 281 281 281 281 281 281 283 286 290 293 293 289 286 287 291 295 293 290 288 286 287 292 296 297 295 292 290 286 279 275 275 278 284 290 294 297 301 304 305 306 309 309 308 307 306 304 303 305 305 302 302 301
315 312 310 307 305 304 304 304 304 302 301 300 299 298 297 298 298 297 296 296 295 293 293 293 293 292 292 292 290 289 288 285 283 282 281 281 282 282 282 282 284 288 291 291 287 285 287 292 296 295 292 289 289 290 294 298 298 296 294 292 286 278 273 272 276 283 289 294 296 297 298 301 304 307 308 307 306 305 304 304 306 305 305 304 303
317 314 311 309 307 305 304 304 303 301 301 301 300 300 300 299 299 298 298 297 296 295 295 294 294 295 294 293 292 291 289 286 285 284 282 281 282 283 283 282 282 285 287 286 283 283 288 293 296 295 293 291 291 293 297 299 298 296 296 295 290 280 270 269 276 285 289 290 290 290 294 300 305 306 306 306 306 305 304 304 305 306 306 306 305
318 316 313 311 309 307 307 305 302 301 301 300 299 299 300 300 299 299 299 299 298 297 297 297 297 297 295 293 293 292 290 288 286 285 283 283 284 284 283 282 281 284 287 285 283 283 287 292 296 296 295 294 295 296 298 299 298 297 296 295 292 284 275 273 279 282 282 283 287 291 295 300 304 305 305 306 307 306 304 304 306 307 306 306 308
319 317 314 312 311 310 308 306 304 302 302 302 301 300 300 300 300 300 300 299 299 299 300 299 299 297 295 294 293 292 290 289 288 286 285 285 287 287 285 282 281 284 286 286 285 285 286 289 293 296 296 296 297 299 300 300 298 296 295 293 291 288 281 277 276 277 279 285 291 294 297 300 302 303 306 308 307 305 305 304 306 307 308 310 314
Height
850 850 850 849 849 848 847 847 846 846 846 845 845 844 844 844 843 843 843 842 842 841 840 840 839 838 837 836 835 834 834 833 832 831 830 828 827 826 824 823 822 821 819 818 817 817 815 814 813 812 812 811 809 809 808 807 806 805 804 803 801 801 799 798 793 782 780 784 783 780 781 779 777 777 776 773 771 769 767 767 767 768 767 767 767
848 848 847 846 846 845 844 844 843 843 842 842 842 842 841 841 841 840 840 839 839 838 838 837 836 835 834 833 833 832 831 830 829 828 827 825 824 823 822 821 819 818 816 815 814 814 812 811 810 809 809 808 807 806 805 804 804 802 801 800 798 798 797 795 792 784 778 779 780 778 777 777 774 774 774 772 770 769 766 764 763 763 763 764 763
845 845 844 843 843 842 841 841 840 839 839 839 839 839 838 838 838 837 837 836 836 835 835 834 833 832 831 830 830 829 828 827 826 826 824 823 821 820 819 818 816 815 813 812 811 810 809 808 807 807 806 805 804 803 802 801 801 800 798 798 796 794 794 793 790 785 778 776 777 776 775 774 772 771 771 769 768 768 766 763 762 760 760 760 760
842 842 841 840 839 839 838 838 837 836 836 836 836 836 836 835 835 834 834 834 833 832 832 831 830 829 828 828 827 826 825 824 823 822 821 820 818 817 816 814 813 811 810 809 808 807 806 805 804 804 803 802 800 800 800 798 798 797 795 795 794 792 791 790 787 784 779 774 774 774 773 772 770 769 769 767 766 765 764 762 760 758 757 756 756
839 838 838 837 836 836 835 834 834 833 833 833 833 833 833 832 832 831 831 830 830 829 829 828 827 826 825 825 824 823 822 821 820 819 817 816 815 813 812 810 809 808 806 805 804 804 803 802 801 801 800 799 797 796 796 795 794 794 792 791 791 789 788 787 785 782 779 774 771 772 771 770 769 767 767 765 763 762 761 760 758 757 755 754 753
836 835 835 834 833 833 832 831 831 831 830 830 830 830 829 829 829 828 828 827 826 826 825 825 824 823 822 821 820 820 819 818 817 815 814 812 811 809 808 806 805 804 803 802 801 800 799 798 797 797 796 795 794 793 793 792 791 790 789 787 787 786 785 783 782 780 777 773 770 769 769 768 766 764 764 764 762 760 758 757 756 755 753 752 750
833 832 831 830 829 829 829 828 828 828 827 827 827 827 826 826 825 825 824 824 823 823 822 821 821 819 819 818 817 816 815 814 813 811 810 809 807 805 804 802 801 800 799 798 797 796 795 795 794 793 792 791 790 789 789 788 787 786 785 784 783 783 781 780 779 777 774 771 768 766 765 765 764 762 761 762 760 758 757 755 753 752 752 750 749
829 828 827 826 826 826 825 825 825 825 824 824 824 823 823 823 822 822 821 820 820 819 818 818 817 816 815 814 813 813 812 810 809 807 806 805 803 801 800 798 797 796 795 794 793 792 791 791 790 789 788 787 786 786 785 784 783 782 781 780 780 779 777 776 776 774 772 769 765 764 763 762 761 759 758 759 758 756 755 754 752 750 750 749 747
825 824 824 823 823 823 822 822 822 822 822 821 821 820 820 819 819 818 818 817 816 816 815 814 813 812 811 810 810 809 808 806 805 803 802 800 798 797 795 794 793 792 791 790 789 788 787 786 786 784 784 783 782 782 781 780 779 777 776 776 776 775 773 772 772 770 768 765 762 760 760 758 757 757 756 756 755 753 753 753 750 748 748 746 745
822 821 820 820 820 820 819 819 819 819 818 818 817 817 816 816 816 815 814 813 813 812 811 810 809 808 807 806 806 805 803 802 801 800 799 797 795 793 791 791 790 788 787 786 785 784 783 782 781 780 780 779 778 777 777 776 776 774 773 772 771 770 768 767 766 765 763 761 758 756 755 753 752 753 753 752 752 751 751 750 748 746 746 744 741
819 818 817 817 817 817 816 816 816 815 815 815 814 814 813 813 812 811 811 810 809 809 808 806 805 804 803 802 801 800 799 798 797 796 795 793 791 790 788 787 786 785 784 782 781 780 779 778 777 777 776 775 774 773 772 772 771 770 769 768 767 765 764 762 760 759 758 756 753 752 751 748 747 748 748 748 748 749 747 747 745 744 744 742 738
815 814 814 814 814 814 813 813 813 812 812 811 811 810 810 809 808 808 807 806 806 805 804 802 801 801 799 798 797 796 795 794 793 792 791 788 786 785 784 783 782 781 780 778 777 776 775 774 773 772 772 771 770 768 767 767 766 765 764 763 762 760 759 757 755 753 752 750 748 746 745 743 741 742 743 743 744 744 743 742 742 741 739 738 736
812 811 811 811 811 811 810 810 809 808 808 808 807 807 806 805 805 804 803 803 802 801 800 799 797 796 795 794 793 792 790 789 789 788 786 783 781 781 780 779 778 777 776 774 773 772 771 770 769 768 767 766 765 764 763 761 760 759 758 757 756 755 753 751 750 749 748 746 743 740 739 739 737 736 737 739 739 738 738 737 737 736 735 733 731
809 809 808 808 808 807 807 807 806 805 805 804 804 803 802 802 801 800 800 799 798 797 796 795 793 792 791 790 789 787 786 785 784 783 782 779 777 776 775 774 773 772 771 770 769 768 767 766 764 763 762 761 760 759 758 757 756 754 753 752 750 749 748 746 745 743 742 742 739 736 735 735 733 731 732 735 734 733 732 732 731 730 729 727 726
806 806 805 805 805 804 804 803 802 802 801 801 800 799 799 798 797 797 796 795 794 793 792 790 789 788 787 786 784 783 781 781 780 779 777 775 773 772 771 770 768 767 766 765 764 763 762 761 760 758 757 756 755 754 753 752 751 749 748 746 744 743 742 740 739 737 736 735 733 731 729 729 728 726 727 728 729 727 727 726 725 725 724 723 723
803 802 802 802 802 801 801 800 799 799 798 797 797 796 795 794 793 793 792 791 790 789 787 786 785 784 783 782 780 778 777 776 776 775 773 770 769 768 767 765 764 762 761 760 759 759 758 757 756 754 753 751 750 750 748 747 746 745 743 741 740 738 736 735 733 732 730 729 727 725 723 722 721 719 719 720 720 720 720 720 720 721 721 720 719
800 800 799 799 798 798 798 797 796 795 794 794 793 792 791 790 789 789 788 786 786 784 783 782 781 780 779 777 776 774 772 772 771 770 769 767 765 764 763 761 760 758 757 756 755 754 753 752 751 750 748 747 746 745 743 742 741 740 738 736 735 733 732 730 729 726 724 722 721 719 717 716 714 713 713 713 713 714 715 714 714 716 716 715 713
797 797 796 796 795 795 794 794 793 792 791 790 789 788 788 787 786 785 784 782 781 780 779 778 776 776 775 773 772 770 768 768 768 766 765 763 761 760 759 757 756 754 753 752 751 750 748 748 747 746 744 743 742 740 738 737 737 735 733 732 730 728 726 725 724 722 719 716 714 713 711 711 710 708 708 708 709 710 710 709 709 710 709 708 707
794 794 793 793 792 791 791 790 789 789 787 786 786 785 784 783 782 781 780 779 777 776 775 774 772 771 770 769 768 767 764 763 763 762 761 760 758 756 755 754 752 750 749 748 747 745 744 743 743 742 740 739 738 736 734 733 732 731 729 728 726 723 722 721 719 717 715 713 711 709 707 706 705 705 704 704 704 705 705 705 705 706 705 703 702
792 791 790 790 789 788 788 787 786 785 784 783 782 781 780 779 778 777 776 775 773 772 771 770 768 767 766 765 763 762 761 759 758 758 757 755 753 752 752 750 748 746 745 744 743 741 740 739 738 738 737 736 734 732 731 729 727 726 725 723 721 719 718 716 715 713 712 710 708 707 705 702 701 701 701 700 700 700 701 701 701 702 701 699 699
789 788 787 786 786 785 784 784 782 782 781 779 779 777 776 775 774 773 772 771 770 768 767 766 764 762 761 760 759 758 757 755 754 754 753 751 749 748 748 746 744 743 741 740 739 737 736 735 734 734 734 733 731 729 727 724 722 721 720 719 717 716 715 713 711 710 709 707 706 704 702 700 698 697 697 697 696 696 696 696 696 697 696 695 695
785 785 784 783 782 781 781 780 779 778 777 776 775 773 772 772 770 769 768 767 766 764 762 762 760 758 757 756 754 753 752 751 751 750 749 748 745 743 743 742 740 739 737 736 734 733 732 732 731 730 730 728 726 724 722 719 718 717 716 715 714 713 711 710 709 708 707 705 703 701 700 698 696 694 693 692 692 692 691 691 690 690 690 690 690
782 782 781 779 779 778 777 776 776 774 774 773 771 769 768 767 766 765 764 763 761 760 758 757 756 754 753 751 750 749 748 747 747 746 745 744 742 739 738 737 736 735 734 732 730 729 729 728 727 725 725 723 721 719 717 716 714 713 712 712 710 709 708 707 707 706 704 702 701 698 696 695 694 692 690 689 688 687 687 686 685 684 684 684 684
779 778 777 776 775 774 773 773 772 771 770 769 768 766 764 763 762 761 760 760 758 756 755 753 752 751 749 747 746 745 744 743 742 741 740 740 738 736 733 732 731 730 729 728 726 725 724 723 722 720 719 717 716 715 713 712 711 710 709 708 707 706 705 704 703 702 701 699 697 695 693 692 691 689 687 686 685 683 682 681 680 679 679 678 678
776 775 774 773 771 770 769 769 767 767 766 765 764 762 761 760 758 756 756 756 754 753 751 750 749 747 745 744 742 741 740 739 738 737 736 735 734 732 729 728 727 726 725 723 722 721 720 718 717 716 714 713 712 710 709 708 707 707 706 705 704 703 702 701 700 699 697 695 693 691 689 688 687 686 684 683 681 680 678 677 676 675 674 673 672
773 772 770 769 768 767 766 764 763 763 762 761 760 759 757 756 754 753 752 752 750 749 747 746 745 743 741 740 739 737 736 735 733 732 732 731 729 727 725 724 723 722 720 719 718 717 715 714 713 712 711 710 709 708 706 705 705 704 703 702 701 700 699 698 697 696 694 692 690 688 686 685 684 682 681 680 678 676 675 674 672 670 669 669 667
769 768 767 765 765 764 762 761 760 759 758 757 756 754 754 753 751 749 748 747 746 745 744 742 741 740 738 736 734 733 731 730 729 728 727 726 724 722 720 720 719 718 716 715 714 713 711 710 709 708 707 707 706 705 704 703 702 701 700 699 698 698 697 696 695 693 691 689 688 686 684 683 681 679 678 676 674 672 672 672 669 666 664 664 662
766 765 764 762 761 760 759 758 756 755 754 753 752 750 749 749 747 745 744 744 742 741 740 738 736 735 733 731 729 728 726 725 725 724 722 720 719 717 716 715 714 713 712 710 709 708 707 706 705 704 704 703 702 702 701 700 699 699 698 697 696 695 694 694 692 691 689 687 685 683 681 680 678 676 675 673 670 669 669 668 665 662 660 659 656
763 761 760 759 757 756 755 754 753 752 750 749 748 746 745 745 743 740 739 739 738 736 735 733 731 730 728 726 724 722 721 720 720 719 717 715 714 713 712 711 709 708 707 705 705 703 702 701 700 700 700 699 698 698 697 697 696 696 695 694 693 693 692 691 689 688 686 685 683 681 679 677 675 673 672 669 667 665 665 664 662 659 656 654 651
759 758 756 755 754 753 752 751 750 749 747 746 744 742 740 740 740 738 735 734 734 733 731 729 727 725 723 721 720 719 717 716 715 714 713 712 711 709 708 707 706 705 703 702 701 699 698 698 697 697 697 696 695 695 694 694 693 693 692 692 691 690 689 688 687 686 684 683 681 679 677 675 672 671 669 667 664 662 661 660 658 656 654 651 647
756 754 753 752 751 750 749 747 746 745 744 743 742 739 736 734 733 734 733 731 729 728 727 725 723 722 720 718 717 716 714 713 712 710 709 708 706 705 704 703 703 702 699 698 697 696 696 695 695 694 694 693 693 692 692 691 691 690 689 689 688 688 687 686 685 684 682 680 679 677 675 673 670 669 667 665 662 659 658 657 655 652 650 647 643
753 750 749 749 747 747 746 744 743 742 741 740 739 737 735 730 727 726 727 727 726 724 723 721 719 718 717 715 713 712 711 710 708 707 705 704 702 702 701 700 699 698 696 694 694 694 694 693 692 692 691 691 690 690 689 689 688 688 687 686 685 685 684 684 683 682 680 678 676 674 672 671 669 667 665 663 661 658 655 654 652 649 646 643 638
749 748 747 745 744 743 742 741 740 739 737 737 735 734 733 731 726 722 720 719 720 719 718 717 716 714 713 711 710 708 706 705 705 703 702 700 699 699 698 696 695 695 693 692 692 692 691 691 690 689 689 688 688 687 687 686 686 685 685 684 683 682 682 681 680 679 678 676 674 672 671 669 667 665 663 661 659 657 654 651 649 646 643 639 633
746 745 744 743 741 740 739 738 737 735 734 733 732 731 730 728 726 723 719 716 714 712 711 711 712 711 710 708 706 705 703 701 700 699 698 697 696 695 694 692 692 692 691 690 690 689 688 688 687 687 686 686 685 685 685 684 683 683 682 681 680 679 679 679 678 677 675 674 672 671 669 668 666 664 661 659 657 655 652 649 646 643 640 635 630
743 742 741 740 739 737 736 735 734 732 731 730 729 728 726 725 723 722 720 717 714 711 708 706 706 706 706 705 703 702 700 699 697 696 695 694 693 692 690 689 689 689 688 687 687 687 686 685 685 684 684 683 683 683 682 681 681 680 679 679 678 677 676 676 675 674 673 671 670 669 667 666 664 662 660 657 655 652 650 647 644 641 637 633 628
740 739 738 737 736 734 733 732 730 729 728 727 725 724 723 721 720 719 717 715 713 710 707 705 703 703 702 701 700 699 698 696 695 693 691 691 690 689 687 686 686 686 685 684 684 683 683 683 682 681 681 680 680 680 679 679 678 678 677 676 675 675 674 673 672 671 670 669 668 667 665 664 662 660 658 655 653 650 648 645 642 639 635 631 627
737 736 734 733 732 731 729 728 727 726 725 723 722 721 719 718 717 715 713 712 710 707 705 703 701 700 699 698 697 696 694 693 692 690 689 688 687 686 685 684 684 683 682 681 681 680 680 679 679 679 678 678 677 677 676 676 676 675 674 674 673 672 672 671 670 669 668 667 666 665 663 662 660 658 656 653 650 648 646 643 640 636 633 629 626
734 733 731 730 729 728 726 724 723 722 721 720 719 718 716 714 713 712 710 708 706 704 702 700 699 697 695 694 694 693 691 689 688 686 685 684 684 683 682 681 681 680 679 679 678 677 676 676 676 676 675 675 674 674 673 673 673 672 672 671 671 670 669 668 668 667 666 664 663 662 661 660 658 656 654 651 648 646 643 641 639 635 631 628 625
731 730 728 727 726 724 723 721 720 719 718 717 715 714 713 711 710 708 706 705 703 701 699 697 695 694 692 691 690 689 688 686 684 683 682 681 680 679 679 678 678 677 676 676 675 674 673 673 673 672 672 671 671 671 671 670 670 669 669 669 668 667 667 666 665 664 663 662 661 660 659 657 655 653 652 649 646 644 641 639 637 634 630 627 623
728 726 725 724 723 721 720 718 717 716 714 713 712 711 709 708 706 705 703 701 699 697 696 694 692 690 689 688 688 686 685 683 681 680 679 678 677 676 676 675 674 674 673 672 672 671 670 670 669 669 669 668 668 668 668 667 667 666 666 666 665 665 664 663 663 662 661 660 659 658 657 655 653 651 649 647 645 642 639 636 634 632 629 626 622
725 723 721 720 719 718 716 715 714 712 711 710 709 707 706 704 703 701 699 698 696 694 692 690 688 687 686 686 685 684 682 680 678 677 676 675 674 673 672 672 671 670 670 669 668 668 667 667 666 666 665 665 665 665 665 664 664 664 663 663 662 662 661 661 660 659 658 658 657 656 654 653 651 649 647 645 643 640 638 635 632 629 627 624 621
722 720 718 717 716 714 713 712 710 709 708 707 705 704 702 701 699 698 696 694 692 691 689 687 685 684 683 682 681 680 679 677 675 674 673 672 671 670 669 668 668 667 666 666 665 665 664 664 663 663 662 662 662 662 661 661 661 661 660 660 660 659 659 658 658 657 656 655 654 653 652 651 650 648 646 643 641 639 636 633 631 628 625 623 620
719 717 716 714 713 712 710 708 707 706 705 703 702 701 699 697 696 694 693 691 689 687 686 683 681 680 679 678 678 676 675 673 672 671 670 669 668 667 666 665 664 664 663 663 662 662 661 660 660 660 659 659 659 659 658 658 658 658 657 657 656 656 656 656 655 655 654 653 652 651 650 649 647 646 644 642 640 637 635 632 629 627 624 622 619
716 715 713 711 710 709 707 706 705 703 701 700 698 697 695 694 693 691 689 688 686 684 682 680 679 677 675 674 674 673 671 670 669 667 666 665 664 663 663 662 661 661 660 659 659 659 658 657 657 656 656 656 656 656 655 655 655 655 654 654 653 653 653 653 653 652 651 651 649 648 648 646 645 644 642 640 638 636 633 631 628 626 623 621 618
713 712 710 708 707 706 704 703 702 700 698 697 695 693 692 691 689 687 686 684 682 681 679 677 676 674 672 671 670 669 668 666 665 664 663 662 661 660 659 659 658 658 657 656 656 656 655 655 654 653 653 653 653 653 653 652 652 652 651 651 650 650 650 650 650 650 649 648 647 646 645 644 643 642 640 638 637 635 632 630 627 625 622 620 617
711 709 708 706 705 703 702 700 699 697 696 694 692 690 689 687 686 685 683 681 679 678 676 674 672 671 669 668 667 665 664 663 662 661 660 659 658 657 656 656 655 654 654 653 653 653 652 652 651 651 650 650 650 650 650 649 649 649 648 648 647 647 647 647 647 647 647 646 645 644 643 642 641 640 638 637 635 633 631 628 626 624 621 619 616
708 707 705 704 702 701 699 698 696 694 693 691 689 688 686 684 683 682 680 678 677 675 672 671 669 668 666 665 663 662 661 660 658 658 657 655 655 654 653 653 652 651 651 651 650 650 650 649 648 648 648 647 647 647 647 646 646 645 645 645 644 644 644 644 644 644 644 644 643 642 641 640 639 637 636 635 633 631 629 626 624 622 620 617 615
706 704 703 702 700 698 696 695 693 691 690 688 686 685 683 681 680 678 676 675 673 671 669 668 666 664 663 662 660 659 658 656 655 654 653 652 652 651 650 650 649 649 648 648 647 647 647 647 646 645 645 644 644 644 644 643 643 642 642 642 641 641 641 642 641 642 642 641 640 640 639 637 636 635 634 632 631 629 627 624 622 620 618 615 613
703 702 700 699 698 696 694 693 691 689 687 686 684 682 680 679 677 675 674 672 670 668 667 665 663 661 660 659 657 656 655 653 652 651 650 649 649 648 647 647 646 646 645 645 645 645 644 644 643 643 642 642 642 642 641 641 640 640 639 639 639 638 638 639 639 639 639 638 638 637 636 635 634 633 632 630 629 627 625 623 620 618 616 613 611
701 700 698 696 695 693 692 690 688 686 685 683 681 679 678 676 674 672 671 669 667 665 664 662 661 659 657 655 654 653 651 650 649 648 647 646 646 645 644 644 644 643 643 643 642 642 642 641 641 640 640 639 639 639 638 638 638 637 637 636 636 636 636 636 636 637 636 636 635 635 634 633 632 631 629 628 627 625 623 621 619 616 614 612 609
698 697 696 694 692 691 689 687 685 684 682 681 679 677 675 673 671 670 668 666 664 663 661 659 658 656 654 653 651 650 648 647 646 645 644 644 643 642 642 641 641 641 641 640 640 640 639 639 638 638 637 637 637 636 636 635 635 635 634 634 633 634 634 634 634 634 634 633 633 632 631 631 630 628 627 626 625 623 621 619 617 615 613 611 608